Location: Dittelbrunn
(50.0738°N, 10.2196°E)
Time: 17:29:31
(UTC+00:00)

Abrixas rocket - Pass Details

Date: 18 September 2020
Orbit: 327 x 334 km, 48.4° (Epoch: 31 October)

Event Time Altitude Azimuth Distance (km) Brightness Sun altitude
Rises 19:36:09 0° 267° (W) 2,090 6.7 -20.8°
Reaches altitude 10° 19:38:09 10° 264° (W) 1,253 5.4 -21.1°
Enters shadow 19:39:38 27° 255° (WSW) 672 3.7 -21.3°
